Regional Weather Roundup
Issued by NWS

Home | Current Version | Previous Version | Graphics & Text | Print | Product List | Glossary On
Versions: 1 2 3 4 5 6 7 8 9 10 11 12 13 14 15 16 17 18 19 20 21 22 23 24 25 26 27 28 29 30 31 32 33 34 35 36 37 38 39 40 41 42 43 44 45 46 47 48 49 50
086
ASUS45 KCYS 181810
RWRWY

WYOMING REGIONAL WEATHER ROUNDUP
NATIONAL WEATHER SERVICE CHEYENNE WY
1100 AM MST WED JAN 18 2017

NOTE:  "FAIR" INDICATES FEW OR NO CLOUDS BELOW 12,000 FEET
WITH NO SIGNIFICANT WEATHER AND/OR OBSTRUCTIONS TO VISIBILITY.

WYZ001-181900-
YELLOWSTONE NATIONAL PARK

CITY           SKY/WX    TMP DP  RH WIND       PRES   REMARKS
LK YELLOWSTONE   N/A      4   0  83 CALM      30.00F
6HR MIN TEMP: -10; 6HR MAX TEMP:   7;

W YELLOWSTONE  NOT AVBL

$$
WYZ002>013-054>058-071-098>099-181900-
NORTHERN WYOMING

CITY           SKY/WX    TMP DP  RH WIND       PRES   REMARKS
JACKSON        SUNNY      0  -2  92 CALM      30.09F
CODY           FAIR      26  14  60 VRB3      29.81F
GREYBULL       FAIR       7  -1  70 CALM      29.89F
6HR MIN TEMP:  -7; 6HR MAX TEMP:   7;

WORLAND        FLURRIES  16   8  71 NE7       29.88S WCI   6
6HR MIN TEMP:  -2; 6HR MAX TEMP:  18; 6HR PCP: TRACE;

SHERIDAN       FAIR      26  16  65 VRB6      29.73R WCI  19
6HR MIN TEMP:  11; 6HR MAX TEMP:  26;

BUFFALO        FAIR      46  19  34 SE8       29.74F
6HR MIN TEMP:  23; 6HR MAX TEMP:  46;

GILLETTE       FAIR      44  21  40 SW25G36   29.73F
6HR MIN TEMP:  21; 6HR MAX TEMP:  46;

HULETT         FAIR      46  19  34 SW16      29.75F
NEWCASTLE      FAIR      34  23  64 CALM      29.82F

$$
WYZ014>020-022>026-101>103-181900-
CENTRAL WYOMING

CITY           SKY/WX    TMP DP  RH WIND       PRES   REMARKS
BIG PINEY      FAIR      -6  -8  91 W3        30.06F
6HR MIN TEMP: -17; 6HR MAX TEMP:  -6;

PINEDALE       FAIR       5   1  85 CALM      30.05F
DUBOIS         NOT AVBL
LANDER         FAIR      18   8  65 CALM      29.96F
6HR MIN TEMP:   4; 6HR MAX TEMP:  18;

RIVERTON       FAIR      16   8  71 W3        29.97F
6HR MIN TEMP:  -2; 6HR MAX TEMP:  16;

CASPER         SUNNY     37  19  48 S35G47    29.88F WCI  24
6HR MIN TEMP:  29; 6HR MAX TEMP:  38;

DOUGLAS        FAIR      48  19  31 NW15G24   29.82F
6HR MIN TEMP:  13; 6HR MAX TEMP:  48;


$$
WYZ021-027>030-104>119-181900-
SOUTHERN WYOMING

CITY           SKY/WX    TMP DP  RH WIND       PRES   REMARKS
EVANSTON       FAIR      19   8  62 S6        30.05F WCI  11
6HR MIN TEMP:  12; 6HR MAX TEMP:  19;

ROCK SPRINGS   FAIR       4   0  83 S3        30.07S
6HR MIN TEMP:  -6; 6HR MAX TEMP:   5;

RAWLINS        FAIR      26  17  68 NE5       30.04F WCI  20
6HR MIN TEMP:   0; 6HR MAX TEMP:  26;

LARAMIE        FAIR      12   7  80 SE7       29.95F WCI   1
6HR MIN TEMP:  -3; 6HR MAX TEMP:  12;

CHEYENNE       FAIR      51  11  20 NW9       29.88F
6HR MIN TEMP:  24; 6HR MAX TEMP:  51;

TORRINGTON     FAIR      45  17  32 CALM      29.82F
6HR MIN TEMP:  17; 6HR MAX TEMP:  45;


$$




USA.gov is the U.S. government's official web portal to all federal, state and local government web resources and services.